Flag Weather past 2 weeks in Hamilton, Ontario, Canada

Now
23 °F

Partly cloudy.


Feels Like: 17 °F
Forecast: N/A
Wind: 5 mph from West

Location: Hamilton Airport

Current Time: Nov 28, 2014 at 6:14:32 PM

Latest Report: Nov 28, 2014 at 5:00 PM


Visibility: 15 mi

Pressure: 30.24 "Hg

Humidity: 63%

Dew point: 12 °F

Location of HamiltonLocation

Historic Weather in Hamilton — Graph

°F

Hamilton temperature yesterday

Maximum temperature yesterday: 34 °F (at 1:00 PM)
Minimum temperature yesterday: 23 °F (at 11:00 PM)
Average temperature yesterday: 30 °F

Past Weeks' High & Low Weather Summary

 TemperatureHumidityPressure
High61 °F (Nov 24, 11:00 AM)100% (Nov 16, 7:00 PM)30.47 "Hg (Nov 16, 7:00 PM)
Low9 °F (Nov 19, 6:00 AM)47% (Nov 15, 2:00 PM)29.17 "Hg (Nov 24, 12:00 PM)
Average29 °F79%29.99 "Hg
* Reported Nov 13 5:00 PM — Nov 28 5:00 PM, Hamilton, Weather by CustomWeather, © 2014

Note: Actual official high and low records may vary slightly from our data, if they occured in-between our weather recording intervals... More about our weather records

Advertising

Hamilton weather history for previous 24 hours

 ConditionsComfort  
Time TempWeatherWind HumidityBarometerVisibility
5:00 PM
Nov 28
23 °FPartly cloudy.5 mph63%30.24 "Hg15 mi
4:00 PM23 °FScattered showers. Broken clouds.12 mph63%30.24 "Hg12 mi
3:00 PM23 °FSnow flurries. Partly sunny.13 mph68%30.25 "Hg9 mi
2:00 PM25 °FSnow flurries. Mostly cloudy.12 mph63%30.25 "Hg15 mi
1:00 PM25 °FCloudy.12 mph63%30.26 "Hg15 mi
12:00 PM25 °FBroken clouds.12 mph59%30.27 "Hg15 mi
11:00 AM25 °FBroken clouds.15 mph59%30.29 "Hg15 mi
10:00 AM23 °FBroken clouds.16 mph68%30.30 "Hg15 mi
9:00 AM19 °FScattered clouds.12 mph73%30.29 "Hg15 mi
8:00 AM18 °FPassing clouds.8 mph73%30.29 "Hg15 mi
7:00 AM18 °FPassing clouds.9 mph79%30.29 "Hg15 mi
6:00 AM18 °FPassing clouds.9 mph79%30.27 "Hg15 mi
5:00 AM18 °FPassing clouds.9 mph79%30.26 "Hg15 mi
4:00 AM18 °FPassing clouds.7 mph79%30.25 "Hg15 mi
3:00 AM19 °FPassing clouds.8 mph73%30.23 "Hg15 mi
2:00 AM21 °FPassing clouds.10 mph68%30.22 "Hg15 mi
1:00 AM21 °FPassing clouds.12 mph74%30.20 "Hg15 mi
12:00 AM23 °FPassing clouds.10 mph74%30.20 "Hg15 mi
11:00 PM
Nov 27
23 °FPartly cloudy.12 mph74%30.19 "Hg15 mi
10:00 PM27 °FLight snow. Mostly cloudy.18 mph74%30.18 "Hg5 mi
9:00 PM28 °FLight snow. Ice fog.8 mph86%30.15 "Hg2 mi
8:00 PM28 °FLight snow. Ice fog.15 mph93%30.12 "Hg1 mi
7:00 PM30 °FSnow flurries. Mostly cloudy.2 mph93%30.10 "Hg4 mi
6:00 PM30 °FSnow flurries. Overcast.7 mph86%30.09 "Hg12 mi
Weather by CustomWeather, © 2014

See weather overviewHow to use our weather pages